Change the Weather History Date:

Sunday, April 28, 2013

  Actual Average Record
Temperature  
Mean Temperature 58 °F 61 °F  
Max Temperature 74 °F 72 °F 88 °F (1970)
Min Temperature 42 °F 50 °F 32 °F (1965)
Degree Days  
Heating Degree Days 7 6  
Month to date heating degree days 383 261  
Since 1 July heating degree days 4181 4392  
Cooling Degree Days 0 1  
Month to date cooling degree days 3 24  
Year to date cooling degree days 4 28  
Growing Degree Days 8 (Base 50)    
Moisture  
Dew Point 49 °F    
Average Humidity 77    
Maximum Humidity 100    
Minimum Humidity 53    
Precipitation  
Precipitation 0.00 in 0.17 in 5.80 in (1994)
Month to date precipitation 4.27 4.05  
Year to date precipitation 11.18 10.25  
Sea Level Pressure  
Sea Level Pressure 29.95 in    
Wind  
Wind Speed 8 mph (SSW)    
Max Wind Speed 15 mph    
Max Gust Speed 21 mph    
Visibility 6 miles    
Events Fog    
T = Trace of Precipitation, MM = Missing Value Source: NWS Daily Summary

Daily Weather History Graph

Daily Weather History Graph

Search for Another Location

Airport or City:

Trip Planner

Search our weather history database for the weather conditions in past years. The results will help you decide how hot, cold, wet, or windy it might be!

Date:

Astronomy

Apr. 28, 2013 Rise Set
Actual Time 6:29 AM CDT 8:09 PM CDT
Civil Twilight 6:01 AM CDT 8:37 PM CDT
Nautical Twilight 5:27 AM CDT 9:11 PM CDT
Astronomical Twilight 4:52 AM CDT 9:47 PM CDT
Moon 11:39 PM CDT (4/28) 8:49 AM CDT (4/28)
Length of Visible Light 14h 36m
Length of Day
13h 40m
Waning Gibbous, 88% of the Moon is Illuminated
Apr 28
Waning Gibbous
May 2
Last Quarter
May 9
New
May 17
First Quarter
May 24
Full

Hourly Weather History & Observations

Time (CDT) Temp. Windchill Dew Point Humidity Pressure Visibility Wind Dir Wind Speed Gust Speed Precip Events Conditions
12:52 AM 53.1 °F - 46.9 °F 80% 30.03 in 10.0 mi Calm Calm - N/A   Overcast
1:52 AM 52.0 °F - 46.9 °F 83% 30.01 in 10.0 mi Calm Calm - N/A   Overcast
2:48 AM 48.2 °F - 44.6 °F 87% 30.00 in 10.0 mi Calm Calm - N/A   Scattered Clouds
2:52 AM 48.0 °F - 45.0 °F 89% 29.99 in 10.0 mi Calm Calm - N/A   Partly Cloudy
3:52 AM 44.1 °F 42.5 °F 42.1 °F 93% 29.99 in 5.0 mi SSW 3.5 mph - N/A   Clear
4:10 AM 44.6 °F 42.2 °F 42.8 °F 93% 29.99 in 2.5 mi SSW 4.6 mph - N/A   Clear
4:17 AM 44.6 °F 43.1 °F 42.8 °F 93% 29.99 in 4.0 mi SSW 3.5 mph - N/A   Clear
4:28 AM 46.4 °F - 44.6 °F 93% 29.99 in 1.5 mi Calm Calm - N/A   Clear
4:30 AM 44.6 °F - 44.6 °F 100% 29.99 in 1.0 mi Calm Calm - N/A   Clear
4:38 AM 44.6 °F - 42.8 °F 93% 29.99 in 0.8 mi Calm Calm - N/A   Clear
4:52 AM 44.1 °F 41.5 °F 42.1 °F 93% 30.00 in 0.5 mi SW 4.6 mph - N/A Fog Fog
5:16 AM 44.6 °F 42.2 °F 44.6 °F 100% 30.00 in 1.2 mi SW 4.6 mph - N/A   Clear
5:19 AM 46.4 °F 44.3 °F 44.6 °F 93% 30.00 in 2.0 mi SW 4.6 mph - N/A   Clear
5:47 AM 44.6 °F 43.1 °F 42.8 °F 93% 30.00 in 1.2 mi SW 3.5 mph - N/A   Clear
5:48 AM 44.1 °F 41.5 °F 43.0 °F 96% 30.00 in 1.2 mi SW 4.6 mph - N/A   Clear
6:03 AM 42.8 °F 40.1 °F 42.8 °F 100% 30.01 in 0.2 mi SW 4.6 mph - N/A Fog Fog
6:52 AM 43.0 °F 39.5 °F 42.1 °F 97% 30.01 in 0.2 mi SSW 5.8 mph - N/A Fog Fog
7:52 AM 46.9 °F - 46.0 °F 97% 30.02 in 0.8 mi SSW 4.6 mph - 0.01 in   Mist
7:57 AM 46.4 °F 44.3 °F 46.4 °F 100% 30.03 in 1.2 mi SSW 4.6 mph - N/A   Mostly Cloudy
8:00 AM 48.2 °F - 46.4 °F 93% 30.03 in 2.0 mi SSW 5.8 mph - N/A   Scattered Clouds
8:08 AM 48.2 °F - 48.2 °F 100% 30.03 in 7.0 mi SSW 6.9 mph - N/A   Partly Cloudy
8:52 AM 53.1 °F - 48.9 °F 86% 30.02 in 10.0 mi SW 10.4 mph - N/A   Clear
9:52 AM 57.0 °F - 51.1 °F 81% 30.01 in 10.0 mi SW 8.1 mph - N/A   Clear
10:52 AM 60.1 °F - 53.1 °F 78% 30.00 in 10.0 mi South 11.5 mph - N/A   Partly Cloudy
11:52 AM 63.0 °F - 54.0 °F 72% 29.98 in 10.0 mi SSW 6.9 mph - N/A   Clear
12:52 PM 66.0 °F - 55.9 °F 70% 29.95 in 10.0 mi South 9.2 mph - N/A   Clear
1:52 PM 69.1 °F - 57.0 °F 65% 29.92 in 10.0 mi SSW 6.9 mph - N/A   Clear
2:52 PM 71.1 °F - 55.9 °F 59% 29.90 in 10.0 mi South 8.1 mph - N/A   Clear
3:52 PM 73.0 °F - 57.0 °F 57% 29.87 in 10.0 mi South 11.5 mph - N/A   Clear
4:52 PM 73.0 °F - 57.0 °F 57% 29.85 in 10.0 mi South 10.4 mph - N/A   Clear
5:52 PM 73.0 °F - 55.9 °F 55% 29.83 in 10.0 mi SSE 10.4 mph - N/A   Clear
6:26 PM 73.4 °F - 57.2 °F 57% 29.84 in 1.8 mi SSE 12.7 mph - N/A   Haze
6:41 PM 71.6 °F - 57.2 °F 60% 29.84 in 10.0 mi SSE 11.5 mph - N/A   Clear
6:52 PM 72.0 °F - 55.9 °F 57% 29.83 in 10.0 mi SSE 12.7 mph - N/A   Clear
7:52 PM 68.0 °F - 57.0 °F 68% 29.82 in 10.0 mi SSE 9.2 mph - N/A   Clear
8:52 PM 64.0 °F - 57.0 °F 78% 29.82 in 10.0 mi SSE 8.1 mph - N/A   Clear
9:52 PM 62.1 °F - 55.9 °F 80% 29.82 in 10.0 mi SSE 9.2 mph - N/A   Clear
10:52 PM 61.0 °F - 55.0 °F 81% 29.81 in 10.0 mi South 10.4 mph - N/A   Clear
11:52 PM 60.1 °F - 54.0 °F 80% 29.80 in 10.0 mi South 8.1 mph - N/A   Clear